Location: Les Jeannots
(43.2262°N, 5.5774°E)
Time: 19:20:04
(UTC+00:00)

Atlas Centaur 2 - Pass Details

Date: 05 July 2020
Orbit: 459 x 1310 km, 30.4° (Epoch: 12 August)

Event Time Altitude Azimuth Distance (km) Brightness Sun altitude
Rises 22:15:03 0° 254° (WSW) 3,516 5.5 -21.1°
Reaches altitude 10° 22:17:59 10° 240° (WSW) 2,720 4.7 -21.3°
Enters shadow 22:21:26 21° 211° (SSW) 2,153 3.9 -21.5°
